Tracking 29892 objects as of 21-Nov-2024
HD Live streaming from Space Station
objects crossing your sky now

SL-6 R/B(2)

Track SL-6 R/B(2) now!


NORAD ID: 12086
Int'l Code: 1980-095E
Perigee: 3,035.8 km
Apogee: 37,607.8 km
Inclination: 64.9 °
Period: 723.4 minutes
Semi major axis: 26692 km
RCS: 4.8939 m2 (large)
Launch date: November 27, 1980
Source: Commonwealth of Independent States (former USSR) (CIS)
Launch site: PLESETSK MISSILE AND SPACE COMPLEX (PKMTR)

Note: This is a ROCKET BODY
Your satellite tracking list
Your tracking list is empty




NASA's NSSDC Master Catalog

Two Line Element Set (TLE):
1 12086U 80095E   24323.23824895  .00000933  00000-0  00000-0 0  9999
2 12086  64.8935 191.2374 6475906  38.4827 353.4968  1.99073003319665
Source of the keplerian elements: AFSPC